sat.trackr.live / text

‹ back to catalog

STARLINK-36744

NORAD 67987 · 2026-039B

PAYLOAD ACTIVE UNKNOWN

§ Identity

Operator
Country
US
Launch date
2026-02-27
Launch site
AFETR
Launch vehicle
Mass (kg)
RCS (m²)

Purposes: comms

External: N2YO · Heavens-Above · Gunter

§ Orbital elements

Epoch: 2026-09-19T09:23:04.284384Z

Period
94.27 min
Inclination
43.0004°
Eccentricity
0.0002877
Mean motion
15.27593660 rev/d
Perigee alt
481.0 km
Apogee alt
485.0 km
Semi-major
6,861.1 km
B*
5.7699e-4
RAAN
35.3475°
Arg perigee
281.9766°
Mean anomaly
78.0763°
Rev number
3,132

§ Raw data

STARLINK-367441 67987U 26039B   26262.39102181  .00015657  00000+0  57699-3 0  99922 67987  43.0004  35.3475 0002877 281.9766  78.0763 15.27593660 31324

JSON: /api/v1/satellites/67987 · /tle

For live sub-satellite position, see the globe view (requires WebGL).

§ Visibility from observer

Set your observer location to see the next 7 days of passes ≥ 10°. The values pass through the URL so the page stays shareable.

No JS? Fill the form by hand. The geolocation button needs JavaScript.